Year,Month,Day,Hour,Minute,Value (Times are PST for temperature in C)
2017,08,03,00,00,18.80
2017,08,03,00,01,18.80
2017,08,03,00,02,18.90
2017,08,03,00,03,18.90
2017,08,03,00,04,18.90
2017,08,03,00,05,18.90
2017,08,03,00,06,18.90
2017,08,03,00,07,18.90
2017,08,03,00,08,18.80
2017,08,03,00,09,18.80
2017,08,03,00,10,18.90
2017,08,03,00,11,18.90
2017,08,03,00,12,18.90
2017,08,03,00,13,19.00
2017,08,03,00,14,19.20
2017,08,03,00,15,19.30
2017,08,03,00,16,19.40
2017,08,03,00,17,19.50
2017,08,03,00,18,19.50
2017,08,03,00,19,19.60
2017,08,03,00,20,19.60
2017,08,03,00,21,19.60
2017,08,03,00,22,19.60
2017,08,03,00,23,19.60
2017,08,03,00,24,19.60
2017,08,03,00,25,19.50
2017,08,03,00,26,19.50
2017,08,03,00,27,19.40
2017,08,03,00,28,19.40
2017,08,03,00,29,19.40
2017,08,03,00,30,19.40
2017,08,03,00,31,19.30
2017,08,03,00,32,19.20
2017,08,03,00,33,19.20
2017,08,03,00,34,19.20
2017,08,03,00,35,19.20
2017,08,03,00,36,19.20
2017,08,03,00,37,19.20
2017,08,03,00,38,19.20
2017,08,03,00,39,19.30
2017,08,03,00,40,19.30
2017,08,03,00,41,19.30
2017,08,03,00,42,19.30
2017,08,03,00,43,19.30
2017,08,03,00,44,19.30
2017,08,03,00,45,19.30
2017,08,03,00,46,19.20
2017,08,03,00,47,19.20
2017,08,03,00,48,19.20
2017,08,03,00,49,19.10
2017,08,03,00,50,19.10
2017,08,03,00,51,19.10
2017,08,03,00,52,19.00
2017,08,03,00,53,19.00
2017,08,03,00,54,19.00
2017,08,03,00,55,19.00
2017,08,03,00,56,19.00
2017,08,03,00,57,19.00
2017,08,03,00,58,19.00
2017,08,03,00,59,19.00
2017,08,03,01,00,19.10
2017,08,03,01,01,19.10
2017,08,03,01,02,19.10
2017,08,03,01,03,19.20
2017,08,03,01,04,19.30
2017,08,03,01,05,19.30
2017,08,03,01,06,19.40
2017,08,03,01,07,19.50
2017,08,03,01,08,19.60
2017,08,03,01,09,19.70
2017,08,03,01,10,19.90
2017,08,03,01,11,20.30
2017,08,03,01,12,20.60
2017,08,03,01,13,20.90
2017,08,03,01,14,21.10
2017,08,03,01,15,21.20
2017,08,03,01,16,21.20
2017,08,03,01,17,21.30
2017,08,03,01,18,21.30
2017,08,03,01,19,21.20
2017,08,03,01,20,21.10
2017,08,03,01,21,21.00
2017,08,03,01,22,21.00
2017,08,03,01,23,20.90
2017,08,03,01,24,20.90
2017,08,03,01,25,20.90
2017,08,03,01,26,20.90
2017,08,03,01,27,20.90
2017,08,03,01,28,20.90
2017,08,03,01,29,20.90
2017,08,03,01,30,20.90
2017,08,03,01,31,20.80
2017,08,03,01,32,20.80
2017,08,03,01,33,20.80
2017,08,03,01,34,20.80
2017,08,03,01,35,20.80
2017,08,03,01,36,20.70
2017,08,03,01,37,20.70
2017,08,03,01,38,20.60
2017,08,03,01,39,20.60
2017,08,03,01,40,20.60
2017,08,03,01,41,20.50
2017,08,03,01,42,20.50
2017,08,03,01,43,20.40
2017,08,03,01,44,20.30
2017,08,03,01,45,20.30
2017,08,03,01,46,20.20
2017,08,03,01,47,20.20
2017,08,03,01,48,20.10
2017,08,03,01,49,20.10
2017,08,03,01,50,19.90
2017,08,03,01,51,19.80
2017,08,03,01,52,19.80
2017,08,03,01,53,19.80
2017,08,03,01,54,19.80
2017,08,03,01,55,19.80
2017,08,03,01,56,19.80
2017,08,03,01,57,19.70
2017,08,03,01,58,19.70
2017,08,03,01,59,19.60
2017,08,03,02,00,19.50
2017,08,03,02,01,19.50
2017,08,03,02,02,19.40
2017,08,03,02,03,19.30
2017,08,03,02,04,19.30
2017,08,03,02,05,19.30
2017,08,03,02,06,19.20
2017,08,03,02,07,19.10
2017,08,03,02,08,19.10
2017,08,03,02,09,19.10
2017,08,03,02,10,19.10
2017,08,03,02,11,19.10
2017,08,03,02,12,19.20
2017,08,03,02,13,19.20
2017,08,03,02,14,19.30
2017,08,03,02,15,19.30
2017,08,03,02,16,19.40
2017,08,03,02,17,19.50
2017,08,03,02,18,19.60
2017,08,03,02,19,19.60
2017,08,03,02,20,19.60
2017,08,03,02,21,19.60
2017,08,03,02,22,19.50
2017,08,03,02,23,19.40
2017,08,03,02,24,19.50
2017,08,03,02,25,19.50
2017,08,03,02,26,19.60
2017,08,03,02,27,19.60
2017,08,03,02,28,19.70
2017,08,03,02,29,19.70
2017,08,03,02,30,19.80
2017,08,03,02,31,20.00
2017,08,03,02,32,20.20
2017,08,03,02,33,20.30
2017,08,03,02,34,20.40
2017,08,03,02,35,20.40
2017,08,03,02,36,20.40
2017,08,03,02,37,20.50
2017,08,03,02,38,20.50
2017,08,03,02,39,20.70
2017,08,03,02,40,20.80
2017,08,03,02,41,20.80
2017,08,03,02,42,20.80
2017,08,03,02,43,20.90
2017,08,03,02,44,21.00
2017,08,03,02,45,21.00
2017,08,03,02,46,21.10
2017,08,03,02,47,21.10
2017,08,03,02,48,21.20
2017,08,03,02,49,21.20
2017,08,03,02,50,21.20
2017,08,03,02,51,21.20
2017,08,03,02,52,21.30
2017,08,03,02,53,21.30
2017,08,03,02,54,21.30
2017,08,03,02,55,21.30
2017,08,03,02,56,21.30
2017,08,03,02,57,21.30
2017,08,03,02,58,21.20
2017,08,03,02,59,21.20
2017,08,03,03,00,21.10
2017,08,03,03,01,21.10
2017,08,03,03,02,21.00
2017,08,03,03,03,21.00
2017,08,03,03,04,21.00
2017,08,03,03,05,21.10
2017,08,03,03,06,21.10
2017,08,03,03,07,21.10
2017,08,03,03,08,21.20
2017,08,03,03,09,21.20
2017,08,03,03,10,21.10
2017,08,03,03,11,21.10
2017,08,03,03,12,21.00
2017,08,03,03,13,20.90
2017,08,03,03,14,20.90
2017,08,03,03,15,20.80
2017,08,03,03,16,20.80
2017,08,03,03,17,20.80
2017,08,03,03,18,20.80
2017,08,03,03,19,20.80
2017,08,03,03,20,20.90
2017,08,03,03,21,20.90
2017,08,03,03,22,20.90
2017,08,03,03,23,20.90
2017,08,03,03,24,20.80
2017,08,03,03,25,20.80
2017,08,03,03,26,20.70
2017,08,03,03,27,20.60
2017,08,03,03,28,20.50
2017,08,03,03,29,20.40
2017,08,03,03,30,20.30
2017,08,03,03,31,20.30
2017,08,03,03,32,20.30
2017,08,03,03,33,20.40
2017,08,03,03,34,20.50
2017,08,03,03,35,20.60
2017,08,03,03,36,20.70
2017,08,03,03,37,20.70
2017,08,03,03,38,20.80
2017,08,03,03,39,20.80
2017,08,03,03,40,20.80
2017,08,03,03,41,20.80
2017,08,03,03,42,20.70
2017,08,03,03,43,20.60
2017,08,03,03,44,20.50
2017,08,03,03,45,20.40
2017,08,03,03,46,20.30
2017,08,03,03,47,20.30
2017,08,03,03,48,20.30
2017,08,03,03,49,20.30
2017,08,03,03,50,20.30
2017,08,03,03,51,20.30
2017,08,03,03,52,20.30
2017,08,03,03,53,20.40
2017,08,03,03,54,20.50
2017,08,03,03,55,20.60
2017,08,03,03,56,20.60
2017,08,03,03,57,20.60
2017,08,03,03,58,20.70
2017,08,03,03,59,20.80
2017,08,03,04,00,20.80
2017,08,03,04,01,20.80
2017,08,03,04,02,20.80
2017,08,03,04,03,20.80
2017,08,03,04,04,20.80
2017,08,03,04,05,20.80
2017,08,03,04,06,20.80
2017,08,03,04,07,20.80
2017,08,03,04,08,20.80
2017,08,03,04,09,20.80
2017,08,03,04,10,20.80
2017,08,03,04,11,20.80
2017,08,03,04,12,20.80
2017,08,03,04,13,20.80
2017,08,03,04,14,20.80
2017,08,03,04,15,20.80
2017,08,03,04,16,20.70
2017,08,03,04,17,20.80
2017,08,03,04,18,20.70
2017,08,03,04,19,20.70
2017,08,03,04,20,20.70
2017,08,03,04,21,20.60
2017,08,03,04,22,20.60
2017,08,03,04,23,20.50
2017,08,03,04,24,20.40
2017,08,03,04,25,20.40
2017,08,03,04,26,20.40
2017,08,03,04,27,20.40
2017,08,03,04,28,20.30
2017,08,03,04,29,20.30
2017,08,03,04,30,20.20
2017,08,03,04,31,20.20
2017,08,03,04,32,20.20
2017,08,03,04,33,20.30
2017,08,03,04,34,20.30
2017,08,03,04,35,20.40
2017,08,03,04,36,20.40
2017,08,03,04,37,20.30
2017,08,03,04,38,20.30
2017,08,03,04,39,20.20
2017,08,03,04,40,20.10
2017,08,03,04,41,20.00
2017,08,03,04,42,19.90
2017,08,03,04,43,19.80
2017,08,03,04,44,19.80
2017,08,03,04,45,19.70
2017,08,03,04,46,19.60
2017,08,03,04,47,19.60
2017,08,03,04,48,19.50
2017,08,03,04,49,19.50
2017,08,03,04,50,19.40
2017,08,03,04,51,19.40
2017,08,03,04,52,19.30
2017,08,03,04,53,19.30
2017,08,03,04,54,19.20
2017,08,03,04,55,19.10
2017,08,03,04,56,19.10
2017,08,03,04,57,19.00
2017,08,03,04,58,18.90
2017,08,03,04,59,18.90
2017,08,03,05,00,18.90
2017,08,03,05,01,18.90
2017,08,03,05,02,18.90
2017,08,03,05,03,18.90
2017,08,03,05,04,18.90
2017,08,03,05,05,18.90
2017,08,03,05,06,18.80
2017,08,03,05,07,18.80
2017,08,03,05,08,18.70
2017,08,03,05,09,18.60
2017,08,03,05,10,18.60
2017,08,03,05,11,18.50
2017,08,03,05,12,18.40
2017,08,03,05,13,18.40
2017,08,03,05,14,18.30
2017,08,03,05,15,18.30
2017,08,03,05,16,18.30
2017,08,03,05,17,18.30
2017,08,03,05,18,18.30
2017,08,03,05,19,18.20
2017,08,03,05,20,18.20
2017,08,03,05,21,18.20
2017,08,03,05,22,18.30
2017,08,03,05,23,18.30
2017,08,03,05,24,18.30
2017,08,03,05,25,18.30
2017,08,03,05,26,18.30
2017,08,03,05,27,18.30
2017,08,03,05,28,18.30
2017,08,03,05,29,18.30
2017,08,03,05,30,18.30
2017,08,03,05,31,18.30
2017,08,03,05,32,18.40
2017,08,03,05,33,18.30
2017,08,03,05,34,18.30
2017,08,03,05,35,18.30
2017,08,03,05,36,18.30
2017,08,03,05,37,18.30
2017,08,03,05,38,18.30
2017,08,03,05,39,18.30
2017,08,03,05,40,18.30
2017,08,03,05,41,18.30
2017,08,03,05,42,18.30
2017,08,03,05,43,18.40
2017,08,03,05,44,18.50
2017,08,03,05,45,18.50
2017,08,03,05,46,18.50
2017,08,03,05,47,18.40
2017,08,03,05,48,18.40
2017,08,03,05,49,18.30
2017,08,03,05,50,18.30
2017,08,03,05,51,18.30
2017,08,03,05,52,18.20
2017,08,03,05,53,18.20
2017,08,03,05,54,18.10
2017,08,03,05,55,18.10
2017,08,03,05,56,18.10
2017,08,03,05,57,18.00
2017,08,03,05,58,18.00
2017,08,03,05,59,17.90
2017,08,03,06,00,17.90
2017,08,03,06,01,17.90
2017,08,03,06,02,17.90
2017,08,03,06,03,17.90
2017,08,03,06,04,17.90
2017,08,03,06,05,17.80
2017,08,03,06,06,17.80
2017,08,03,06,07,17.80
2017,08,03,06,08,17.80
2017,08,03,06,09,17.90
2017,08,03,06,10,17.90
2017,08,03,06,11,17.90
2017,08,03,06,12,17.90
2017,08,03,06,13,17.80
2017,08,03,06,14,17.80
2017,08,03,06,15,17.80
2017,08,03,06,16,17.70
2017,08,03,06,17,17.70
2017,08,03,06,18,17.70
2017,08,03,06,19,17.70
2017,08,03,06,20,17.80
2017,08,03,06,21,17.90
2017,08,03,06,22,17.90
2017,08,03,06,23,17.90
2017,08,03,06,24,17.90
2017,08,03,06,25,17.90
2017,08,03,06,26,17.80
2017,08,03,06,27,17.90
2017,08,03,06,28,17.90
2017,08,03,06,29,18.00
2017,08,03,06,30,18.10
2017,08,03,06,31,18.30
2017,08,03,06,32,18.40
2017,08,03,06,33,18.50
2017,08,03,06,34,18.60
2017,08,03,06,35,18.80
2017,08,03,06,36,19.10
2017,08,03,06,37,19.20
2017,08,03,06,38,19.30
2017,08,03,06,39,19.20
2017,08,03,06,40,19.10
2017,08,03,06,41,19.10
2017,08,03,06,42,19.00
2017,08,03,06,43,18.90
2017,08,03,06,44,18.90
2017,08,03,06,45,18.80
2017,08,03,06,46,18.70
2017,08,03,06,47,18.70
2017,08,03,06,48,18.80
2017,08,03,06,49,18.80
2017,08,03,06,50,18.80
2017,08,03,06,51,18.90
2017,08,03,06,52,18.90
2017,08,03,06,53,19.10
2017,08,03,06,54,19.20
2017,08,03,06,55,19.30
2017,08,03,06,56,19.40
2017,08,03,06,57,19.40
2017,08,03,06,58,19.50
2017,08,03,06,59,19.50
2017,08,03,07,00,19.60
2017,08,03,07,01,19.70
2017,08,03,07,02,19.70
2017,08,03,07,03,19.80
2017,08,03,07,04,19.90
2017,08,03,07,05,20.00
2017,08,03,07,06,20.10
2017,08,03,07,07,20.20
2017,08,03,07,08,20.30
2017,08,03,07,09,20.30
2017,08,03,07,10,20.40
2017,08,03,07,11,20.50
2017,08,03,07,12,20.60
2017,08,03,07,13,20.70
2017,08,03,07,14,20.70
2017,08,03,07,15,20.70
2017,08,03,07,16,20.80
2017,08,03,07,17,20.80
2017,08,03,07,18,20.80
2017,08,03,07,19,20.80
2017,08,03,07,20,20.80
2017,08,03,07,21,20.80
2017,08,03,07,22,20.80
2017,08,03,07,23,20.80
2017,08,03,07,24,20.80
2017,08,03,07,25,20.80
2017,08,03,07,26,20.80
2017,08,03,07,27,20.80
2017,08,03,07,28,20.80
2017,08,03,07,29,20.80
2017,08,03,07,30,20.80
2017,08,03,07,31,20.80
2017,08,03,07,32,20.80
2017,08,03,07,33,20.80
2017,08,03,07,34,20.80
2017,08,03,07,35,20.80
2017,08,03,07,36,20.70
2017,08,03,07,37,20.70
2017,08,03,07,38,20.70
2017,08,03,07,39,20.70
2017,08,03,07,40,20.70
2017,08,03,07,41,20.70
2017,08,03,07,42,20.70
2017,08,03,07,43,20.60
2017,08,03,07,44,20.60
2017,08,03,07,45,20.60
2017,08,03,07,46,20.60
2017,08,03,07,47,20.70
2017,08,03,07,48,20.70
2017,08,03,07,49,20.70
2017,08,03,07,50,20.70
2017,08,03,07,51,20.70
2017,08,03,07,52,20.70
2017,08,03,07,53,20.70
2017,08,03,07,54,20.70
2017,08,03,07,55,20.80
2017,08,03,07,56,20.80
2017,08,03,07,57,20.80
2017,08,03,07,58,20.80
2017,08,03,07,59,20.80
2017,08,03,08,00,20.80
2017,08,03,08,01,20.80
2017,08,03,08,02,20.80
2017,08,03,08,03,20.80
2017,08,03,08,04,20.80
2017,08,03,08,05,20.80
2017,08,03,08,06,20.80
2017,08,03,08,07,20.80
2017,08,03,08,08,20.80
2017,08,03,08,09,20.80
2017,08,03,08,10,20.90
2017,08,03,08,11,20.90
2017,08,03,08,12,20.90
2017,08,03,08,13,20.90
2017,08,03,08,14,20.90
2017,08,03,08,15,20.90
2017,08,03,08,16,20.90
2017,08,03,08,17,20.90
2017,08,03,08,18,21.00
2017,08,03,08,19,21.00
2017,08,03,08,20,21.00
2017,08,03,08,21,21.00
2017,08,03,08,22,21.00
2017,08,03,08,23,21.10
2017,08,03,08,24,21.10
2017,08,03,08,25,21.10
2017,08,03,08,26,21.10
2017,08,03,08,27,21.10
2017,08,03,08,28,21.10
2017,08,03,08,29,21.10
2017,08,03,08,30,21.10
2017,08,03,08,31,21.10
2017,08,03,08,32,21.20
2017,08,03,08,33,21.20
2017,08,03,08,34,21.20
2017,08,03,08,35,21.20
2017,08,03,08,36,21.20
2017,08,03,08,37,21.20
2017,08,03,08,38,21.30
2017,08,03,08,39,21.30
2017,08,03,08,40,21.30
2017,08,03,08,41,21.30
2017,08,03,08,42,21.30
2017,08,03,08,43,21.30
2017,08,03,08,44,21.30
2017,08,03,08,45,21.30
2017,08,03,08,46,21.30
2017,08,03,08,47,21.30
2017,08,03,08,48,21.30
2017,08,03,08,49,21.40
2017,08,03,08,50,21.40
2017,08,03,08,51,21.40
2017,08,03,08,52,21.40
2017,08,03,08,53,21.40
2017,08,03,08,54,21.40
2017,08,03,08,55,21.40
2017,08,03,08,56,21.40
2017,08,03,08,57,21.40
2017,08,03,08,58,21.40
2017,08,03,08,59,21.40
2017,08,03,09,00,21.40
2017,08,03,09,01,21.40
2017,08,03,09,02,21.40
2017,08,03,09,03,21.40
2017,08,03,09,04,21.40
2017,08,03,09,05,21.40
2017,08,03,09,06,21.40
2017,08,03,09,07,21.40
2017,08,03,09,08,21.40
2017,08,03,09,09,21.40
2017,08,03,09,10,21.40
2017,08,03,09,11,21.40
2017,08,03,09,12,21.40
2017,08,03,09,13,21.40
2017,08,03,09,14,21.40
2017,08,03,09,15,21.40
2017,08,03,09,16,21.40
2017,08,03,09,17,21.40
2017,08,03,09,18,21.50
2017,08,03,09,19,21.50
2017,08,03,09,20,21.50
2017,08,03,09,21,21.50
2017,08,03,09,22,21.50
2017,08,03,09,23,21.50
2017,08,03,09,24,21.60
2017,08,03,09,25,21.60
2017,08,03,09,26,21.60
2017,08,03,09,27,21.60
2017,08,03,09,28,21.70
2017,08,03,09,29,21.60
2017,08,03,09,30,21.60
2017,08,03,09,31,21.60
2017,08,03,09,32,21.60
2017,08,03,09,33,21.70
2017,08,03,09,34,21.70
2017,08,03,09,35,21.70
2017,08,03,09,36,21.70
2017,08,03,09,37,21.80
2017,08,03,09,38,21.80
2017,08,03,09,39,21.80
2017,08,03,09,40,21.80
2017,08,03,09,41,21.80
2017,08,03,09,42,21.80
2017,08,03,09,43,21.80
2017,08,03,09,44,21.80
2017,08,03,09,45,21.80
2017,08,03,09,46,21.80
2017,08,03,09,47,21.80
2017,08,03,09,48,21.70
2017,08,03,09,49,21.70
2017,08,03,09,50,21.70
2017,08,03,09,51,21.70
2017,08,03,09,52,21.70
2017,08,03,09,53,21.80
2017,08,03,09,54,21.80
2017,08,03,09,55,21.80
2017,08,03,09,56,21.80
2017,08,03,09,57,21.80
2017,08,03,09,58,21.90
2017,08,03,09,59,21.90
2017,08,03,10,00,22.00
2017,08,03,10,01,22.10
2017,08,03,10,02,22.10
2017,08,03,10,03,22.20
2017,08,03,10,04,22.20
2017,08,03,10,05,22.20
2017,08,03,10,06,22.20
2017,08,03,10,07,22.20
2017,08,03,10,08,22.20
2017,08,03,10,09,22.30
2017,08,03,10,10,22.30
2017,08,03,10,11,22.30
2017,08,03,10,12,22.20
2017,08,03,10,13,22.10
2017,08,03,10,14,22.10
2017,08,03,10,15,22.10
2017,08,03,10,16,22.10
2017,08,03,10,17,22.10
2017,08,03,10,18,22.10
2017,08,03,10,19,22.10
2017,08,03,10,20,22.10
2017,08,03,10,21,22.10
2017,08,03,10,22,22.10
2017,08,03,10,23,22.20
2017,08,03,10,24,22.20
2017,08,03,10,25,22.20
2017,08,03,10,26,22.30
2017,08,03,10,27,22.30
2017,08,03,10,28,22.30
2017,08,03,10,29,22.30
2017,08,03,10,30,22.30
2017,08,03,10,31,22.30
2017,08,03,10,32,22.30
2017,08,03,10,33,22.30
2017,08,03,10,34,22.30
2017,08,03,10,35,22.40
2017,08,03,10,36,22.40
2017,08,03,10,37,22.50
2017,08,03,10,38,22.50
2017,08,03,10,39,22.60
2017,08,03,10,40,22.60
2017,08,03,10,41,22.50
2017,08,03,10,42,22.50
2017,08,03,10,43,22.40
2017,08,03,10,44,22.40
2017,08,03,10,45,22.30
2017,08,03,10,46,22.30
2017,08,03,10,47,22.30
2017,08,03,10,48,22.40
2017,08,03,10,49,22.50
2017,08,03,10,50,22.50
2017,08,03,10,51,22.50
2017,08,03,10,52,22.40
2017,08,03,10,53,22.30
2017,08,03,10,54,22.30
2017,08,03,10,55,22.30
2017,08,03,10,56,22.30
2017,08,03,10,57,22.30
2017,08,03,10,58,22.40
2017,08,03,10,59,22.40
2017,08,03,11,00,22.50
2017,08,03,11,01,22.60
2017,08,03,11,02,22.60
2017,08,03,11,03,22.60
2017,08,03,11,04,22.50
2017,08,03,11,05,22.60
2017,08,03,11,06,22.60
2017,08,03,11,07,22.60
2017,08,03,11,08,22.50
2017,08,03,11,09,22.50
2017,08,03,11,10,22.50
2017,08,03,11,11,22.60
2017,08,03,11,12,22.50
2017,08,03,11,13,22.50
2017,08,03,11,14,22.40
2017,08,03,11,15,22.50
2017,08,03,11,16,22.60
2017,08,03,11,17,22.70
2017,08,03,11,18,22.70
2017,08,03,11,19,22.80
2017,08,03,11,20,22.80
2017,08,03,11,21,22.90
2017,08,03,11,22,22.90
2017,08,03,11,23,22.90
2017,08,03,11,24,22.90
2017,08,03,11,25,22.90
2017,08,03,11,26,22.90
2017,08,03,11,27,22.80
2017,08,03,11,28,22.80
2017,08,03,11,29,22.80
2017,08,03,11,30,22.70
2017,08,03,11,31,22.70
2017,08,03,11,32,22.80
2017,08,03,11,33,22.80
2017,08,03,11,34,22.90
2017,08,03,11,35,22.90
2017,08,03,11,36,23.00
2017,08,03,11,37,23.10
2017,08,03,11,38,23.10
2017,08,03,11,39,23.20
2017,08,03,11,40,23.20
2017,08,03,11,41,23.20
2017,08,03,11,42,23.30
2017,08,03,11,43,23.40
2017,08,03,11,44,23.40
2017,08,03,11,45,23.50
2017,08,03,11,46,23.40
2017,08,03,11,47,23.50
2017,08,03,11,48,23.60
2017,08,03,11,49,23.60
2017,08,03,11,50,23.60
2017,08,03,11,51,23.60
2017,08,03,11,52,23.60
2017,08,03,11,53,23.60
2017,08,03,11,54,23.60
2017,08,03,11,55,23.70
2017,08,03,11,56,23.80
2017,08,03,11,57,23.90
2017,08,03,11,58,24.00
2017,08,03,11,59,24.00
2017,08,03,12,00,24.00
2017,08,03,12,01,23.90
2017,08,03,12,02,23.80
2017,08,03,12,03,23.80
2017,08,03,12,04,23.70
2017,08,03,12,05,23.70
2017,08,03,12,06,23.80
2017,08,03,12,07,23.80
2017,08,03,12,08,23.80
2017,08,03,12,09,23.80
2017,08,03,12,10,23.80
2017,08,03,12,11,23.80
2017,08,03,12,12,23.90
2017,08,03,12,13,23.90
2017,08,03,12,14,24.00
2017,08,03,12,15,24.00
2017,08,03,12,16,24.00
2017,08,03,12,17,24.00
2017,08,03,12,18,24.10
2017,08,03,12,19,24.10
2017,08,03,12,20,24.00
2017,08,03,12,21,23.90
2017,08,03,12,22,23.90
2017,08,03,12,23,23.80
2017,08,03,12,24,23.80
2017,08,03,12,25,23.80
2017,08,03,12,26,23.80
2017,08,03,12,27,23.70
2017,08,03,12,28,23.70
2017,08,03,12,29,23.70
2017,08,03,12,30,23.70
2017,08,03,12,31,23.70
2017,08,03,12,32,23.80
2017,08,03,12,33,23.90
2017,08,03,12,34,24.00
2017,08,03,12,35,24.10
2017,08,03,12,36,24.20
2017,08,03,12,37,24.20
2017,08,03,12,38,24.30
2017,08,03,12,39,24.30
2017,08,03,12,40,24.30
2017,08,03,12,41,24.30
2017,08,03,12,42,24.20
2017,08,03,12,43,24.20
2017,08,03,12,44,24.30
2017,08,03,12,45,24.30
2017,08,03,12,46,24.40
2017,08,03,12,47,24.40
2017,08,03,12,48,24.50
2017,08,03,12,49,24.60
2017,08,03,12,50,24.70
2017,08,03,12,51,24.80
2017,08,03,12,52,24.80
2017,08,03,12,53,24.80
2017,08,03,12,54,24.90
2017,08,03,12,55,24.90
2017,08,03,12,56,24.90
2017,08,03,12,57,24.90
2017,08,03,12,58,24.80
2017,08,03,12,59,24.80
2017,08,03,13,00,24.80
2017,08,03,13,01,24.80
2017,08,03,13,02,24.80
2017,08,03,13,03,24.90
2017,08,03,13,04,24.90
2017,08,03,13,05,24.90
2017,08,03,13,06,25.00
2017,08,03,13,07,25.00
2017,08,03,13,08,25.00
2017,08,03,13,09,24.90
2017,08,03,13,10,24.70
2017,08,03,13,11,24.60
2017,08,03,13,12,24.50
2017,08,03,13,13,24.40
2017,08,03,13,14,24.40
2017,08,03,13,15,24.40
2017,08,03,13,16,24.40
2017,08,03,13,17,24.40
2017,08,03,13,18,24.30
2017,08,03,13,19,24.20
2017,08,03,13,20,24.20
2017,08,03,13,21,24.10
2017,08,03,13,22,24.00
2017,08,03,13,23,24.00
2017,08,03,13,24,24.00
2017,08,03,13,25,23.90
2017,08,03,13,26,24.00
2017,08,03,13,27,24.10
2017,08,03,13,28,24.20
2017,08,03,13,29,24.30
2017,08,03,13,30,24.40
2017,08,03,13,31,24.50
2017,08,03,13,32,24.70
2017,08,03,13,33,24.90
2017,08,03,13,34,25.00
2017,08,03,13,35,25.10
2017,08,03,13,36,25.20
2017,08,03,13,37,25.20
2017,08,03,13,38,25.10
2017,08,03,13,39,25.00
2017,08,03,13,40,24.90
2017,08,03,13,41,24.90
2017,08,03,13,42,24.80
2017,08,03,13,43,24.90
2017,08,03,13,44,24.90
2017,08,03,13,45,24.90
2017,08,03,13,46,24.90
2017,08,03,13,47,24.90
2017,08,03,13,48,24.90
2017,08,03,13,49,24.90
2017,08,03,13,50,25.00
2017,08,03,13,51,24.90
2017,08,03,13,52,24.90
2017,08,03,13,53,24.80
2017,08,03,13,54,24.80
2017,08,03,13,55,24.80
2017,08,03,13,56,24.80
2017,08,03,13,57,24.90
2017,08,03,13,58,24.90
2017,08,03,13,59,24.90
2017,08,03,14,00,24.80
2017,08,03,14,01,24.70
2017,08,03,14,02,24.70
2017,08,03,14,03,24.70
2017,08,03,14,04,24.70
2017,08,03,14,05,24.70
2017,08,03,14,06,24.70
2017,08,03,14,07,24.70
2017,08,03,14,08,24.70
2017,08,03,14,09,24.80
2017,08,03,14,10,24.80
2017,08,03,14,11,24.90
2017,08,03,14,12,24.90
2017,08,03,14,13,25.00
2017,08,03,14,14,25.10
2017,08,03,14,15,25.10
2017,08,03,14,16,25.10
2017,08,03,14,17,25.20
2017,08,03,14,18,25.30
2017,08,03,14,19,25.30
2017,08,03,14,20,25.40
2017,08,03,14,21,25.40
2017,08,03,14,22,25.30
2017,08,03,14,23,25.40
2017,08,03,14,24,25.40
2017,08,03,14,25,25.50
2017,08,03,14,26,25.60
2017,08,03,14,27,25.60
2017,08,03,14,28,25.70
2017,08,03,14,29,25.70
2017,08,03,14,30,25.80
2017,08,03,14,31,25.80
2017,08,03,14,32,25.90
2017,08,03,14,33,25.90
2017,08,03,14,34,25.90
2017,08,03,14,35,26.00
2017,08,03,14,36,26.00
2017,08,03,14,37,26.00
2017,08,03,14,38,26.00
2017,08,03,14,39,25.90
2017,08,03,14,40,25.90
2017,08,03,14,41,25.80
2017,08,03,14,42,25.70
2017,08,03,14,43,25.80
2017,08,03,14,44,25.80
2017,08,03,14,45,25.80
2017,08,03,14,46,25.80
2017,08,03,14,47,25.80
2017,08,03,14,48,25.70
2017,08,03,14,49,25.70
2017,08,03,14,50,25.70
2017,08,03,14,51,25.60
2017,08,03,14,52,25.60
2017,08,03,14,53,25.60
2017,08,03,14,54,25.60
2017,08,03,14,55,25.60
2017,08,03,14,56,25.60
2017,08,03,14,57,25.60
2017,08,03,14,58,25.60
2017,08,03,14,59,25.70
2017,08,03,15,00,25.70
2017,08,03,15,01,25.80
2017,08,03,15,02,25.90
2017,08,03,15,03,26.00
2017,08,03,15,04,26.00
2017,08,03,15,05,26.10
2017,08,03,15,06,26.20
2017,08,03,15,07,26.20
2017,08,03,15,08,26.30
2017,08,03,15,09,26.30
2017,08,03,15,10,26.30
2017,08,03,15,11,26.30
2017,08,03,15,12,26.30
2017,08,03,15,13,26.30
2017,08,03,15,14,26.30
2017,08,03,15,15,26.30
2017,08,03,15,16,26.30
2017,08,03,15,17,26.30
2017,08,03,15,18,26.30
2017,08,03,15,19,26.30
2017,08,03,15,20,26.30
2017,08,03,15,21,26.30
2017,08,03,15,22,26.30
2017,08,03,15,23,26.40
2017,08,03,15,24,26.40
2017,08,03,15,25,26.40
2017,08,03,15,26,26.50
2017,08,03,15,27,26.50
2017,08,03,15,28,26.50
2017,08,03,15,29,26.50
2017,08,03,15,30,26.50
2017,08,03,15,31,26.50
2017,08,03,15,32,26.40
2017,08,03,15,33,26.40
2017,08,03,15,34,26.40
2017,08,03,15,35,26.40
2017,08,03,15,36,26.40
2017,08,03,15,37,26.50
2017,08,03,15,38,26.60
2017,08,03,15,39,26.70
2017,08,03,15,40,26.70
2017,08,03,15,41,26.80
2017,08,03,15,42,26.80
2017,08,03,15,43,26.80
2017,08,03,15,44,26.70
2017,08,03,15,45,26.70
2017,08,03,15,46,26.70
2017,08,03,15,47,26.60
2017,08,03,15,48,26.60
2017,08,03,15,49,26.60
2017,08,03,15,50,26.60
2017,08,03,15,51,26.60
2017,08,03,15,52,26.60
2017,08,03,15,53,26.60
2017,08,03,15,54,26.60
2017,08,03,15,55,26.60
2017,08,03,15,56,26.60
2017,08,03,15,57,26.50
2017,08,03,15,58,26.50
2017,08,03,15,59,26.50
2017,08,03,16,00,26.60
2017,08,03,16,01,26.60
2017,08,03,16,02,26.70
2017,08,03,16,03,26.70
2017,08,03,16,04,26.80
2017,08,03,16,05,26.80
2017,08,03,16,06,26.90
2017,08,03,16,07,26.90
2017,08,03,16,08,27.00
2017,08,03,16,09,27.10
2017,08,03,16,10,27.10
2017,08,03,16,11,27.10
2017,08,03,16,12,27.10
2017,08,03,16,13,27.20
2017,08,03,16,14,27.20
2017,08,03,16,15,27.20
2017,08,03,16,16,27.30
2017,08,03,16,17,27.30
2017,08,03,16,18,27.30
2017,08,03,16,19,27.30
2017,08,03,16,20,27.30
2017,08,03,16,21,27.40
2017,08,03,16,22,27.40
2017,08,03,16,23,27.40
2017,08,03,16,24,27.40
2017,08,03,16,25,27.40
2017,08,03,16,26,27.40
2017,08,03,16,27,27.30
2017,08,03,16,28,27.30
2017,08,03,16,29,27.20
2017,08,03,16,30,27.20
2017,08,03,16,31,27.20
2017,08,03,16,32,27.30
2017,08,03,16,33,27.20
2017,08,03,16,34,27.20
2017,08,03,16,35,27.10
2017,08,03,16,36,27.10
2017,08,03,16,37,27.10
2017,08,03,16,38,27.10
2017,08,03,16,39,27.10
2017,08,03,16,40,27.20
2017,08,03,16,41,27.10
2017,08,03,16,42,27.20
2017,08,03,16,43,27.20
2017,08,03,16,44,27.10
2017,08,03,16,45,27.10
2017,08,03,16,46,27.10
2017,08,03,16,47,27.10
2017,08,03,16,48,27.10
2017,08,03,16,49,27.10
2017,08,03,16,50,27.20
2017,08,03,16,51,27.30
2017,08,03,16,52,27.30
2017,08,03,16,53,27.40
2017,08,03,16,54,27.50
2017,08,03,16,55,27.50
2017,08,03,16,56,27.50
2017,08,03,16,57,27.50
2017,08,03,16,58,27.60
2017,08,03,16,59,27.60
2017,08,03,17,00,27.60
2017,08,03,17,01,27.60
2017,08,03,17,02,27.60
2017,08,03,17,03,27.60
2017,08,03,17,04,27.50
2017,08,03,17,05,27.50
2017,08,03,17,06,27.40
2017,08,03,17,07,27.40
2017,08,03,17,08,27.30
2017,08,03,17,09,27.40
2017,08,03,17,10,27.40
2017,08,03,17,11,27.40
2017,08,03,17,12,27.40
2017,08,03,17,13,27.40
2017,08,03,17,14,27.40
2017,08,03,17,15,27.40
2017,08,03,17,16,27.40
2017,08,03,17,17,27.40
2017,08,03,17,18,27.40
2017,08,03,17,19,27.40